Date String (YYYY-MM-DD hh:mm:ss) UTC,Instrument flags,Ambient pressure (hPa),Sample flow (lpm),Bypass flow (lpm),Sample temperature (°C),Ambient temperature (°C),ASC tube jacket temperature (°C),LED temperature (°C),Box temperature (°C),Sample RH (%),Span deviation,Mass concentration (μg/m³),Mass concentration (μg/m³),Mass concentration (μg/m³)
DateTimeUTC,F1_M11,P_M11,Q1_M11,Q2_M11,T1_M11,T2_M11,T3_M11,T4_M11,T5_M11,U1_M11,ZSPAN_M11,X0_M11,X2_M11,X1_M11
2022-10-22 13:00:00,,0813.2,5.00,0.00,28.5,27.1,00.0,37.3,30.4,08.7,0000.0,0009.33,0004.36,0004.00
2022-10-22 13:01:00,,0813.3,4.99,0.00,28.5,27.0,00.0,37.3,30.4,08.9,0000.0,0008.83,0004.46,0004.12
2022-10-22 13:02:00,,0813.2,5.02,0.00,28.5,27.0,00.0,37.3,30.4,08.9,0000.0,0008.36,0004.62,0004.26
2022-10-22 13:03:00,,0813.2,4.99,0.00,28.5,27.0,00.0,37.3,30.4,08.9,0000.0,0008.53,0004.80,0004.38
2022-10-22 13:04:00,,0813.2,5.00,0.00,28.5,27.0,00.0,37.3,30.4,08.9,0000.0,0008.85,0004.90,0004.49
2022-10-22 13:05:00,,0813.1,5.00,0.00,28.5,27.0,00.0,37.3,30.3,08.9,0000.0,0008.97,0005.01,0004.60
2022-10-22 13:06:00,,0813.2,4.98,0.00,28.5,27.0,00.0,37.3,30.4,08.9,0000.0,0009.10,0005.15,0004.75
2022-10-22 13:07:00,,0813.2,5.02,0.00,28.5,27.0,00.0,37.4,30.3,08.9,0000.0,0009.54,0005.33,0004.90
2022-10-22 13:08:00,,0813.1,4.99,0.00,28.5,26.9,00.0,37.4,30.3,08.9,0000.0,0010.28,0005.46,0005.04
2022-10-22 13:09:00,,0813.2,5.02,0.00,28.5,26.9,00.0,37.4,30.3,08.9,0000.0,0010.18,0005.63,0005.19
2022-10-22 13:10:00,,0813.2,4.99,0.00,28.5,26.9,00.0,37.4,30.3,08.9,0000.0,0010.58,0005.79,0005.34
2022-10-22 13:11:00,,0813.1,5.00,0.00,28.5,26.9,00.0,37.4,30.3,08.8,0000.0,0010.64,0005.96,0005.49
2022-10-22 13:12:00,,0813.1,5.01,0.00,28.5,26.9,00.0,37.4,30.3,08.8,0000.0,0010.72,0006.04,0005.55
2022-10-22 13:13:00,,0813.2,4.99,0.00,28.5,26.9,00.0,37.4,30.3,08.8,0000.0,0010.76,0006.09,0005.61
2022-10-22 13:14:00,,0813.3,5.01,0.00,28.5,26.9,00.0,37.4,30.3,08.7,0000.0,0010.69,0006.12,0005.69
2022-10-22 13:15:00,,0813.2,4.99,0.00,28.5,26.9,00.0,37.4,30.3,08.8,0000.0,0010.51,0006.20,0005.78
2022-10-22 13:16:00,,0813.2,5.01,0.00,28.5,26.9,00.0,37.4,30.3,08.7,0000.0,0010.51,0006.25,0005.84
2022-10-22 13:17:00,,0813.2,4.99,0.00,28.5,26.9,00.0,37.4,30.4,08.4,0000.0,0010.46,0006.31,0005.91
2022-10-22 13:18:00,,0813.1,4.98,0.00,28.5,26.9,00.0,37.4,30.4,08.6,0000.0,0010.32,0006.38,0006.00
2022-10-22 13:19:00,,0813.2,5.01,0.00,28.5,27.0,00.0,37.4,30.4,08.5,0000.0,0009.97,0006.44,0006.06
2022-10-22 13:20:00,,0813.1,4.99,0.00,28.5,27.0,00.0,37.4,30.4,08.5,0000.0,0009.77,0006.47,0006.13
2022-10-22 13:21:00,,0813.1,4.99,0.00,28.5,27.0,00.0,37.4,30.3,08.4,0000.0,0009.70,0006.55,0006.23
2022-10-22 13:22:00,,0813.1,5.01,0.00,28.5,27.0,00.0,37.4,30.3,08.4,0000.0,0010.01,0006.58,0006.29
2022-10-22 13:23:00,,0813.1,4.99,0.00,28.5,27.0,00.0,37.4,30.4,08.4,0000.0,0010.04,0006.62,0006.35
2022-10-22 13:24:00,,0813.1,5.02,0.00,28.5,27.0,00.0,37.4,30.4,08.6,0000.0,0010.28,0006.62,0006.36
2022-10-22 13:25:00,,0813.0,4.99,0.00,28.5,27.0,00.0,37.4,30.4,08.6,0000.0,0010.93,0006.67,0006.37
2022-10-22 13:26:00,,0813.0,4.98,0.00,28.5,27.0,00.0,37.4,30.4,08.5,0000.0,0011.04,0006.72,0006.40
2022-10-22 13:27:00,,0813.1,5.01,0.00,28.5,27.0,00.0,37.4,30.3,08.5,0000.0,0011.04,0006.74,0006.41
2022-10-22 13:28:00,,0813.1,4.98,0.00,28.5,27.0,00.0,37.4,30.4,08.5,0000.0,0011.10,0006.73,0006.37
2022-10-22 13:29:00,,0813.2,5.01,0.00,28.5,27.0,00.0,37.4,30.3,08.5,0000.0,0010.94,0006.69,0006.31
2022-10-22 13:30:00,,0813.1,4.99,0.00,28.5,27.0,00.0,37.4,30.4,08.5,0000.0,0010.63,0006.68,0006.29
2022-10-22 13:31:00,,0813.1,5.00,0.00,28.5,27.0,00.0,37.4,30.4,08.5,0000.0,0010.64,0006.65,0006.25
2022-10-22 13:32:00,,0813.0,5.01,0.00,28.5,27.0,00.0,37.4,30.4,08.5,0000.0,0010.53,0006.57,0006.15
2022-10-22 13:33:00,,0813.1,4.99,0.00,28.5,27.0,00.0,37.4,30.4,08.5,0000.0,0010.24,0006.51,0006.05
2022-10-22 13:34:00,,0813.2,4.99,0.00,28.5,27.0,00.0,37.4,30.3,08.5,0000.0,0010.34,0006.48,0006.01
2022-10-22 13:35:00,,0813.0,5.01,0.00,28.5,27.0,00.0,37.4,30.4,08.5,0000.0,0010.19,0006.49,0005.98
2022-10-22 13:36:00,,0813.3,4.99,0.00,28.5,27.1,00.0,37.4,30.4,08.5,0000.0,0009.88,0006.44,0005.95
2022-10-22 13:37:00,,0813.2,5.01,0.00,28.6,27.1,00.0,37.4,30.5,08.5,0000.0,0009.86,0006.38,0005.92
2022-10-22 13:38:00,,0813.2,4.99,0.00,28.6,27.1,00.0,37.4,30.5,08.6,0000.0,0009.90,0006.36,0005.90
2022-10-22 13:39:00,,0813.2,4.99,0.00,28.6,27.1,00.0,37.4,30.5,08.5,0000.0,0009.83,0006.30,0005.86
2022-10-22 13:40:00,,0813.1,5.02,0.00,28.6,27.1,00.0,37.4,30.4,08.5,0000.0,0009.99,0006.29,0005.85
2022-10-22 13:41:00,,0813.1,4.99,0.00,28.6,27.1,00.0,37.4,30.4,08.5,0000.0,0010.29,0006.28,0005.82
2022-10-22 13:42:00,,0813.0,5.02,0.00,28.5,27.0,00.0,37.4,30.4,08.6,0000.0,0010.99,0006.24,0005.78
2022-10-22 13:43:00,,0812.9,4.99,0.00,28.5,27.0,00.0,37.4,30.4,08.6,0000.0,0010.88,0006.21,0005.77
2022-10-22 13:44:00,,0813.2,5.00,0.00,28.5,27.0,00.0,37.4,30.4,08.6,0000.0,0010.85,0006.18,0005.75
2022-10-22 13:45:00,,0813.1,5.00,0.00,28.5,27.0,00.0,37.4,30.4,08.6,0000.0,0010.75,0006.13,0005.69
2022-10-22 13:46:00,,0813.1,4.99,0.00,28.5,27.0,00.0,37.4,30.4,08.6,0000.0,0010.83,0006.05,0005.61
2022-10-22 13:47:00,,0813.1,5.01,0.00,28.5,27.0,00.0,37.4,30.4,08.6,0000.0,0010.67,0005.96,0005.54
2022-10-22 13:48:00,,0813.1,4.99,0.00,28.5,27.1,00.0,37.4,30.4,08.6,0000.0,0010.63,0005.90,0005.45
2022-10-22 13:49:00,,0813.1,4.99,0.00,28.5,27.0,00.0,37.4,30.4,08.6,0000.0,0010.51,0005.82,0005.37
2022-10-22 13:50:00,,0813.1,5.00,0.00,28.5,27.0,00.0,37.4,30.4,08.6,0000.0,0010.48,0005.77,0005.33
2022-10-22 13:51:00,,0813.1,5.00,0.00,28.5,27.0,00.0,37.4,30.4,08.7,0000.0,0010.23,0005.70,0005.26
2022-10-22 13:52:00,,0813.1,5.02,0.00,28.5,27.0,00.0,37.4,30.4,08.7,0000.0,0009.87,0005.65,0005.20
2022-10-22 13:53:00,,0813.1,4.99,0.00,28.6,27.1,00.0,37.4,30.4,08.8,0000.0,0009.00,0005.59,0005.15
2022-10-22 13:54:00,,0813.1,4.99,0.00,28.6,27.1,00.0,37.4,30.4,08.7,0000.0,0008.93,0005.55,0005.10
2022-10-22 13:55:00,,0813.1,5.02,0.00,28.6,27.1,00.0,37.4,30.5,08.7,0000.0,0008.90,0005.51,0005.07
2022-10-22 13:56:00,,0813.1,4.99,0.00,28.6,27.2,00.0,37.4,30.5,08.7,0000.0,0009.56,0005.51,0005.06
2022-10-22 13:57:00,,0813.1,5.02,0.00,28.6,27.2,00.0,37.4,30.5,08.8,0000.0,0009.33,0005.53,0005.06
2022-10-22 13:58:00,,0813.2,4.99,0.00,28.6,27.2,00.0,37.4,30.5,08.7,0000.0,0009.25,0005.58,0005.07
2022-10-22 13:59:00,,0813.1,5.00,0.00,28.6,27.2,00.0,37.4,30.5,08.7,0000.0,0009.13,0005.62,0005.09
